This is the latest recevied weather packets stored in our database for station/object DC1NF-7. If no packets are shown the sender has not sent any weather packets the latest 10 day(s).
| Time | Temp. | Humidity | Pressure | Rain* | Wind** | Luminosity | Snow |
|---|---|---|---|---|---|---|---|
| 1777546532 | 13.89° C | 26% | 1029.5 hPa | 0 mm | - | 882 W/m² | - |
| 1777545929 | 13.89° C | 25% | 1029.6 hPa | 0 mm | - | 879 W/m² | - |
| 1777545326 | 13.89° C | 26% | 1029.6 hPa | 0 mm | - | 876 W/m² | - |
| 1777544721 | 13.33° C | 26% | 1029.7 hPa | 0 mm | - | 870 W/m² | - |
| 1777544120 | 13.33° C | 26% | 1029.8 hPa | 0 mm | - | 861 W/m² | - |
| 1777543573 | 12.78° C | 26% | 1029.8 hPa | 0 mm | - | 853 W/m² | - |
| 1777542972 | 12.78° C | 26% | 1030 hPa | 0 mm | - | 840 W/m² | - |
| 1777542365 | 13.33° C | 26% | 1030.1 hPa | 0 mm | - | 826 W/m² | - |
| 1777541764 | 12.78° C | 27% | 1030.1 hPa | 0 mm | - | 810 W/m² | - |
| 1777541161 | 12.22° C | 28% | 1030.1 hPa | 0 mm | - | 789 W/m² | - |
| 1777540558 | 12.22° C | 28% | 1030.2 hPa | 0 mm | - | 769 W/m² | - |
| 1777539954 | 11.11° C | 28% | 1030.1 hPa | 0 mm | - | 749 W/m² | - |
| 1777539346 | 11.11° C | 29% | 1030.2 hPa | 0 mm | - | 726 W/m² | - |
| 1777538742 | 10.56° C | 31% | 1030.2 hPa | 0 mm | - | 707 W/m² | - |
| 1777538139 | 10.56° C | 31% | 1030.2 hPa | 0 mm | - | 682 W/m² | - |
| 1777537536 | 11.11° C | 31% | 1030.3 hPa | 0 mm | - | 655 W/m² | - |
| 1777536933 | 10.56° C | 32% | 1030.3 hPa | 0 mm | - | 630 W/m² | - |
| 1777536333 | 10° C | 32% | 1030.3 hPa | 0 mm | - | 600 W/m² | - |
| 1777535726 | 10° C | 33% | 1030.3 hPa | 0 mm | - | 571 W/m² | - |
| 1777535123 | 10° C | 33% | 1030.4 hPa | 0 mm | - | 538 W/m² | - |
| 1777534522 | 9.44° C | 34% | 1030.5 hPa | 0 mm | - | 504 W/m² | - |
| 1777533978 | 9.44° C | 35% | 1030.4 hPa | 0 mm | - | 471 W/m² | - |
| 1777533370 | 8.89° C | 36% | 1030.4 hPa | 0 mm | - | 435 W/m² | - |
| 1777532767 | 8.33° C | 38% | 1030.4 hPa | 0 mm | - | 397 W/m² | - |
| 1777532167 | 7.78° C | 38% | 1030.6 hPa | 0 mm | - | 362 W/m² | - |
* Rain latest hour (hover to see other rain measurements)
** Current wind speed in m/s (hover to see current wind gust speed)